Time,TemperatureF,DewpointF,PressureIn,WindDirection,WindDirectionDegrees,WindSpeedMPH,WindSpeedGustMPH,Humidity,HourlyPrecipIn,Conditions,Clouds,dailyrainin,SoftwareType,DateUTC
2013-03-11 00:00:00,66.0,58.3,30.08,ESE,117,1.0,7.0,76,0.00,,,0.00,meteohub,2013-03-11 04:00:00,
2013-03-11 00:06:00,65.8,58.5,30.08,ESE,113,2.0,7.0,77,0.00,,,0.00,meteohub,2013-03-11 04:06:00,
2013-03-11 00:07:00,65.8,58.5,30.08,SE,130,2.0,7.0,77,0.00,,,0.00,meteohub,2013-03-11 04:07:00,
2013-03-11 00:12:00,65.7,57.9,30.08,SE,134,6.0,8.0,76,0.00,,,0.00,meteohub,2013-03-11 04:12:00,
2013-03-11 00:18:00,65.3,57.6,30.08,ENE,65,1.0,8.0,76,0.00,,,0.00,meteohub,2013-03-11 04:18:00,
2013-03-11 00:25:00,65.1,57.7,30.08,ESE,121,0.0,7.0,77,0.00,,,0.00,meteohub,2013-03-11 04:25:00,
2013-03-11 00:31:00,64.9,57.9,30.08,ESE,119,1.0,7.0,78,0.00,,,0.00,meteohub,2013-03-11 04:31:00,
2013-03-11 00:37:00,64.8,57.7,30.08,ESE,109,1.0,8.0,78,0.00,,,0.00,meteohub,2013-03-11 04:37:00,
2013-03-11 00:42:00,64.6,57.9,30.08,SE,131,4.0,8.0,79,0.00,,,0.00,meteohub,2013-03-11 04:42:00,
2013-03-11 00:47:00,64.2,57.6,30.08,SE,128,0.0,7.0,79,0.00,,,0.00,meteohub,2013-03-11 04:47:00,
2013-03-11 00:52:00,64.2,57.6,30.08,SE,129,0.0,5.0,79,0.00,,,0.00,meteohub,2013-03-11 04:52:00,
2013-03-11 00:57:00,64.0,57.7,30.08,SE,141,1.0,5.0,80,0.00,,,0.00,meteohub,2013-03-11 04:57:00,
2013-03-11 01:02:00,64.0,57.7,30.08,SE,126,2.0,6.0,80,0.00,,,0.00,meteohub,2013-03-11 05:02:00,
2013-03-11 01:07:00,63.9,57.9,30.08,SE,126,2.0,6.0,81,0.00,,,0.00,meteohub,2013-03-11 05:07:00,
2013-03-11 01:13:00,63.7,57.7,30.08,SE,131,1.0,4.0,81,0.00,,,0.00,meteohub,2013-03-11 05:13:00,
2013-03-11 01:19:00,63.5,57.6,30.08,SE,132,1.0,4.0,81,0.00,,,0.00,meteohub,2013-03-11 05:19:00,
2013-03-11 01:25:00,63.3,57.4,30.08,SE,143,2.0,4.0,81,0.00,,,0.00,meteohub,2013-03-11 05:25:00,
2013-03-11 01:31:00,63.3,57.4,30.08,SSE,155,2.0,4.0,81,0.00,,,0.00,meteohub,2013-03-11 05:31:00,
2013-03-11 01:37:00,63.1,57.2,30.08,SE,133,0.0,4.0,81,0.00,,,0.00,meteohub,2013-03-11 05:37:00,
2013-03-11 01:43:00,63.1,57.2,30.08,SSE,149,0.0,4.0,81,0.00,,,0.00,meteohub,2013-03-11 05:43:00,
2013-03-11 01:50:00,63.0,57.4,30.08,SSE,149,0.0,4.0,82,0.00,,,0.00,meteohub,2013-03-11 05:50:00,
2013-03-11 01:56:00,62.8,57.6,30.07,SSE,149,0.0,2.0,83,0.00,,,0.00,meteohub,2013-03-11 05:56:00,
2013-03-11 02:02:00,62.4,57.2,30.07,SSE,152,0.0,2.0,83,0.00,,,0.00,meteohub,2013-03-11 06:02:00,
2013-03-11 02:07:00,62.2,57.0,30.07,SSE,152,0.0,2.0,83,0.00,,,0.00,meteohub,2013-03-11 06:07:00,
2013-03-11 02:12:00,62.1,57.2,30.06,SSE,148,0.0,3.0,84,0.00,,,0.00,meteohub,2013-03-11 06:12:00,
2013-03-11 02:17:00,62.1,57.2,30.06,SSE,147,1.0,3.0,84,0.00,,,0.00,meteohub,2013-03-11 06:17:00,
2013-03-11 02:22:00,62.1,57.2,30.06,ESE,105,0.0,3.0,84,0.00,,,0.00,meteohub,2013-03-11 06:22:00,
2013-03-11 02:27:00,62.1,57.2,30.06,SSE,154,1.0,4.0,84,0.00,,,0.00,meteohub,2013-03-11 06:27:00,
2013-03-11 02:32:00,62.1,57.2,30.06,ESE,123,3.0,4.0,84,0.00,,,0.00,meteohub,2013-03-11 06:32:00,
2013-03-11 02:38:00,62.1,57.2,30.06,SE,141,0.0,5.0,84,0.00,,,0.00,meteohub,2013-03-11 06:38:00,
2013-03-11 02:44:00,62.1,57.2,30.06,SE,133,0.0,5.0,84,0.00,,,0.00,meteohub,2013-03-11 06:44:00,
2013-03-11 02:50:00,62.1,57.6,30.06,SE,128,4.0,4.0,85,0.00,,,0.00,meteohub,2013-03-11 06:50:00,
2013-03-11 02:56:00,61.9,57.6,30.05,SE,128,0.0,4.0,86,0.00,,,0.00,meteohub,2013-03-11 06:56:00,
2013-03-11 03:02:00,61.9,57.6,30.05,SE,132,0.0,4.0,86,0.00,,,0.00,meteohub,2013-03-11 07:02:00,
2013-03-11 03:07:00,61.5,57.4,30.05,SE,130,0.0,4.0,86,0.00,,,0.00,meteohub,2013-03-11 07:07:00,
2013-03-11 03:12:00,61.5,57.4,30.05,SE,130,0.0,3.0,86,0.00,,,0.00,meteohub,2013-03-11 07:12:00,
2013-03-11 03:17:00,61.5,57.6,30.05,SE,135,1.0,4.0,87,0.00,,,0.00,meteohub,2013-03-11 07:17:00,
2013-03-11 03:22:00,61.3,57.4,30.04,SE,135,1.0,4.0,87,0.00,,,0.00,meteohub,2013-03-11 07:22:00,
2013-03-11 03:27:00,61.3,57.4,30.04,SE,134,0.0,4.0,87,0.00,,,0.00,meteohub,2013-03-11 07:27:00,
2013-03-11 03:32:00,61.3,57.4,30.04,SE,134,0.0,3.0,87,0.00,,,0.00,meteohub,2013-03-11 07:32:00,
2013-03-11 03:37:00,61.3,57.4,30.04,SE,127,1.0,4.0,87,0.00,,,0.00,meteohub,2013-03-11 07:37:00,
2013-03-11 03:42:00,61.2,57.6,30.04,SE,128,0.0,4.0,88,0.00,,,0.00,meteohub,2013-03-11 07:42:00,
2013-03-11 03:47:00,61.2,57.2,30.03,SE,144,2.0,4.0,87,0.00,,,0.00,meteohub,2013-03-11 07:47:00,
2013-03-11 03:52:00,61.2,57.6,30.03,SE,133,0.0,4.0,88,0.00,,,0.00,meteohub,2013-03-11 07:52:00,
2013-03-11 03:57:00,61.2,57.6,30.03,SE,145,0.0,4.0,88,0.00,,,0.00,meteohub,2013-03-11 07:57:00,
2013-03-11 04:02:00,61.2,57.6,30.02,ESE,111,1.0,4.0,88,0.00,,,0.00,meteohub,2013-03-11 08:02:00,
2013-03-11 04:07:00,61.0,57.4,30.02,SSE,150,2.0,4.0,88,0.00,,,0.00,meteohub,2013-03-11 08:07:00,
2013-03-11 04:12:00,61.0,57.4,30.02,SE,130,0.0,4.0,88,0.00,,,0.00,meteohub,2013-03-11 08:12:00,
2013-03-11 04:17:00,61.0,57.4,30.02,SE,130,1.0,4.0,88,0.00,,,0.00,meteohub,2013-03-11 08:17:00,
2013-03-11 04:22:00,61.0,57.4,30.01,SE,146,2.0,4.0,88,0.00,,,0.00,meteohub,2013-03-11 08:22:00,
2013-03-11 04:27:00,61.0,57.4,30.01,ESE,111,0.0,5.0,88,0.00,,,0.00,meteohub,2013-03-11 08:27:00,
2013-03-11 04:33:00,61.0,57.4,30.01,SE,126,2.0,5.0,88,0.00,,,0.00,meteohub,2013-03-11 08:33:00,
2013-03-11 04:39:00,61.0,57.4,30.01,ESE,109,1.0,5.0,88,0.00,,,0.00,meteohub,2013-03-11 08:39:00,
2013-03-11 04:45:00,61.0,57.7,30.01,East,101,1.0,4.0,89,0.00,,,0.00,meteohub,2013-03-11 08:45:00,
2013-03-11 04:51:00,61.0,57.7,30.00,East,100,3.0,5.0,89,0.00,,,0.00,meteohub,2013-03-11 08:51:00,
2013-03-11 04:57:00,60.8,57.6,30.00,SE,138,1.0,5.0,89,0.00,,,0.00,meteohub,2013-03-11 08:57:00,
2013-03-11 05:02:00,60.8,57.6,29.99,SE,126,0.0,5.0,89,0.00,,,0.00,meteohub,2013-03-11 09:02:00,
2013-03-11 05:07:00,60.8,57.6,30.00,SE,138,0.0,5.0,89,0.00,,,0.00,meteohub,2013-03-11 09:07:00,
2013-03-11 05:12:00,60.6,57.4,29.99,SE,131,1.0,4.0,89,0.00,,,0.00,meteohub,2013-03-11 09:12:00,
2013-03-11 05:17:00,60.6,57.4,29.99,SSE,161,4.0,4.0,89,0.00,,,0.00,meteohub,2013-03-11 09:17:00,
2013-03-11 05:22:00,60.6,57.4,29.99,SE,140,1.0,5.0,89,0.00,,,0.00,meteohub,2013-03-11 09:22:00,
2013-03-11 05:28:00,60.6,57.4,29.99,SE,131,1.0,5.0,89,0.00,,,0.00,meteohub,2013-03-11 09:28:00,
2013-03-11 05:34:00,60.6,57.4,29.99,SE,138,0.0,5.0,89,0.00,,,0.00,meteohub,2013-03-11 09:34:00,
2013-03-11 05:40:00,60.6,57.4,29.99,SSE,148,1.0,5.0,89,0.00,,,0.00,meteohub,2013-03-11 09:40:00,
2013-03-11 05:46:00,60.6,57.4,29.99,SE,130,2.0,5.0,89,0.00,,,0.00,meteohub,2013-03-11 09:46:00,
2013-03-11 05:52:00,60.6,57.4,29.99,SSE,150,3.0,7.0,89,0.00,,,0.00,meteohub,2013-03-11 09:52:00,
2013-03-11 05:57:00,61.0,57.7,29.99,South,184,5.0,7.0,89,0.00,,,0.00,meteohub,2013-03-11 09:57:00,
2013-03-11 06:02:00,61.2,57.9,29.99,South,181,1.0,10.0,89,0.00,,,0.00,meteohub,2013-03-11 10:02:00,
2013-03-11 06:07:00,61.2,57.6,29.99,SSE,148,2.0,10.0,88,0.00,,,0.00,meteohub,2013-03-11 10:07:00,
2013-03-11 06:12:00,61.2,57.6,29.99,East,87,0.0,10.0,88,0.00,,,0.00,meteohub,2013-03-11 10:12:00,
2013-03-11 06:19:00,61.2,57.6,29.99,ESE,123,2.0,6.0,88,0.00,,,0.00,meteohub,2013-03-11 10:19:00,
2013-03-11 06:25:00,61.2,57.6,30.00,ENE,58,2.0,7.0,88,0.00,,,0.00,meteohub,2013-03-11 10:25:00,
2013-03-11 06:31:00,61.2,57.6,29.99,SSE,162,4.0,7.0,88,0.00,,,0.00,meteohub,2013-03-11 10:31:00,
2013-03-11 06:37:00,61.2,57.6,29.99,South,182,2.0,6.0,88,0.00,,,0.00,meteohub,2013-03-11 10:37:00,
2013-03-11 06:42:00,61.2,57.6,29.99,SE,130,0.0,8.0,88,0.00,,,0.00,meteohub,2013-03-11 10:42:00,
2013-03-11 06:47:00,61.2,57.9,29.99,SSE,163,0.0,8.0,89,0.00,,,0.00,meteohub,2013-03-11 10:47:00,
2013-03-11 06:52:00,61.0,57.4,30.00,SE,144,1.0,5.0,88,0.00,,,0.00,meteohub,2013-03-11 10:52:00,
2013-03-11 06:57:00,61.0,57.7,30.00,ESE,111,1.0,5.0,89,0.00,,,0.00,meteohub,2013-03-11 10:57:00,
2013-03-11 07:02:00,61.0,57.7,30.00,ESE,107,1.0,4.0,89,0.00,,,0.00,meteohub,2013-03-11 11:02:00,
2013-03-11 07:07:00,61.0,57.7,30.00,ESE,115,3.0,4.0,89,0.00,,,0.00,meteohub,2013-03-11 11:07:00,
2013-03-11 07:12:00,61.0,57.7,30.00,SE,135,2.0,7.0,89,0.00,,,0.00,meteohub,2013-03-11 11:12:00,
2013-03-11 07:17:00,61.0,57.7,30.00,SSE,148,0.0,7.0,89,0.00,,,0.00,meteohub,2013-03-11 11:17:00,
2013-03-11 07:23:00,61.0,57.7,30.01,SSE,147,1.0,7.0,89,0.00,,,0.00,meteohub,2013-03-11 11:23:00,
2013-03-11 07:30:00,61.0,58.1,30.01,SSE,148,1.0,5.0,90,0.00,,,0.00,meteohub,2013-03-11 11:30:00,
2013-03-11 07:36:00,61.0,58.1,30.01,SE,142,3.0,6.0,90,0.00,,,0.00,meteohub,2013-03-11 11:36:00,
2013-03-11 07:42:00,61.0,57.7,30.01,SE,140,3.0,6.0,89,0.00,,,0.00,meteohub,2013-03-11 11:42:00,
2013-03-11 07:48:00,61.2,57.9,30.00,SE,146,1.0,6.0,89,0.00,,,0.00,meteohub,2013-03-11 11:48:00,
2013-03-11 07:54:00,61.2,58.3,30.01,SSE,157,1.0,5.0,90,0.00,,,0.00,meteohub,2013-03-11 11:54:00,
2013-03-11 08:00:00,61.2,58.3,30.01,SSE,149,2.0,5.0,90,0.00,,,0.00,meteohub,2013-03-11 12:00:00,
2013-03-11 08:06:00,61.3,58.5,30.01,ESE,116,1.0,6.0,90,0.00,,,0.00,meteohub,2013-03-11 12:06:00,
2013-03-11 08:12:00,61.3,58.1,30.00,South,172,1.0,6.0,89,0.00,,,0.00,meteohub,2013-03-11 12:12:00,
2013-03-11 08:17:00,61.5,58.3,30.01,South,175,1.0,8.0,89,0.00,,,0.00,meteohub,2013-03-11 12:17:00,
2013-03-11 08:22:00,61.9,58.6,30.01,SE,131,3.0,8.0,89,0.00,,,0.00,meteohub,2013-03-11 12:22:00,
2013-03-11 08:27:00,62.1,58.8,30.01,SSE,151,1.0,8.0,89,0.00,,,0.00,meteohub,2013-03-11 12:27:00,
2013-03-11 08:33:00,62.2,58.6,30.01,ESE,118,8.0,8.0,88,0.00,,,0.00,meteohub,2013-03-11 12:33:00,
2013-03-11 08:39:00,62.6,58.6,30.01,ESE,123,2.0,8.0,87,0.00,,,0.00,meteohub,2013-03-11 12:39:00,
2013-03-11 08:45:00,63.0,59.0,30.01,SSE,148,3.0,8.0,87,0.00,,,0.00,meteohub,2013-03-11 12:45:00,
2013-03-11 08:51:00,63.1,58.8,30.01,SSE,156,2.0,9.0,86,0.00,,,0.00,meteohub,2013-03-11 12:51:00,
2013-03-11 08:57:00,63.5,59.2,30.01,ESE,111,1.0,9.0,86,0.00,,,0.00,meteohub,2013-03-11 12:57:00,
2013-03-11 09:03:00,63.9,59.2,30.01,SSE,149,4.0,9.0,85,0.00,,,0.00,meteohub,2013-03-11 13:03:00,
2013-03-11 09:09:00,64.0,59.4,30.01,SSE,155,5.0,9.0,85,0.00,,,0.00,meteohub,2013-03-11 13:09:00,
2013-03-11 09:16:00,64.6,59.4,30.01,ESE,122,3.0,10.0,83,0.00,,,0.00,meteohub,2013-03-11 13:16:00,
2013-03-11 09:22:00,64.8,59.2,30.01,ESE,123,5.0,10.0,82,0.00,,,0.00,meteohub,2013-03-11 13:22:00,
2013-03-11 09:27:00,65.1,59.5,30.01,ESE,103,1.0,10.0,82,0.00,,,0.00,meteohub,2013-03-11 13:27:00,
2013-03-11 09:34:00,66.0,59.7,30.01,SE,146,1.0,10.0,80,0.00,,,0.00,meteohub,2013-03-11 13:34:00,
2013-03-11 09:40:00,66.6,59.9,30.01,ESE,120,2.0,11.0,79,0.00,,,0.00,meteohub,2013-03-11 13:40:00,
2013-03-11 09:46:00,66.7,60.1,30.01,SE,127,8.0,11.0,79,0.00,,,0.00,meteohub,2013-03-11 13:46:00,
2013-03-11 09:52:00,66.7,60.1,30.01,SE,139,4.0,11.0,79,0.00,,,0.00,meteohub,2013-03-11 13:52:00,
2013-03-11 09:57:00,66.9,59.9,30.01,SE,129,7.0,12.0,78,0.00,,,0.00,meteohub,2013-03-11 13:57:00,
2013-03-11 10:02:00,67.1,60.1,30.01,ESE,107,2.0,12.0,78,0.00,,,0.00,meteohub,2013-03-11 14:02:00,
2013-03-11 10:07:00,67.3,59.9,30.01,SE,137,5.0,11.0,77,0.00,,,0.00,meteohub,2013-03-11 14:07:00,
2013-03-11 10:13:00,67.6,60.3,30.00,NE,40,3.0,12.0,77,0.00,,,0.00,meteohub,2013-03-11 14:13:00,
2013-03-11 10:20:00,68.2,60.3,30.01,SSE,151,3.0,12.0,76,0.00,,,0.00,meteohub,2013-03-11 14:20:00,
2013-03-11 10:26:00,68.7,60.1,30.01,SE,138,8.0,15.0,74,0.00,,,0.00,meteohub,2013-03-11 14:26:00,
2013-03-11 10:32:00,69.3,60.6,30.01,SE,144,5.0,13.0,74,0.00,,,0.00,meteohub,2013-03-11 14:32:00,
2013-03-11 10:37:00,69.4,60.4,30.01,SE,144,6.0,13.0,73,0.00,,,0.00,meteohub,2013-03-11 14:37:00,
2013-03-11 10:42:00,69.6,60.6,30.01,ESE,120,3.0,13.0,73,0.00,,,0.00,meteohub,2013-03-11 14:42:00,
2013-03-11 10:47:00,70.2,60.6,30.01,SE,133,5.0,13.0,72,0.00,,,0.00,meteohub,2013-03-11 14:47:00,
2013-03-11 10:52:00,70.9,61.0,30.01,ESE,105,1.0,12.0,71,0.00,,,0.00,meteohub,2013-03-11 14:52:00,
2013-03-11 10:57:00,71.2,61.3,30.01,ESE,119,7.0,12.0,71,0.00,,,0.00,meteohub,2013-03-11 14:57:00,
2013-03-11 11:02:00,71.2,61.0,30.01,SE,135,4.0,9.0,70,0.00,,,0.00,meteohub,2013-03-11 15:02:00,
2013-03-11 11:07:00,71.2,61.0,30.01,ESE,122,5.0,9.0,70,0.00,,,0.00,meteohub,2013-03-11 15:07:00,
2013-03-11 11:12:00,71.4,61.2,30.01,ESE,117,2.0,13.0,70,0.00,,,0.00,meteohub,2013-03-11 15:12:00,
2013-03-11 11:17:00,71.4,61.2,30.01,SE,138,3.0,13.0,70,0.00,,,0.00,meteohub,2013-03-11 15:17:00,
2013-03-11 11:22:00,71.8,61.9,30.01,East,94,7.0,14.0,71,0.00,,,0.00,meteohub,2013-03-11 15:22:00,
2013-03-11 11:27:00,72.3,61.5,30.01,SE,126,5.0,14.0,69,0.00,,,0.00,meteohub,2013-03-11 15:27:00,
2013-03-11 11:32:00,72.5,61.7,30.02,SW,215,4.0,12.0,69,0.00,,,0.00,meteohub,2013-03-11 15:32:00,
2013-03-11 11:38:00,73.0,61.5,30.02,SE,142,5.0,12.0,67,0.00,,,0.00,meteohub,2013-03-11 15:38:00,
2013-03-11 11:44:00,73.2,61.5,30.03,SSW,208,3.0,12.0,67,0.00,,,0.00,meteohub,2013-03-11 15:44:00,
2013-03-11 11:50:00,73.0,61.5,30.03,SSW,210,7.0,12.0,67,0.00,,,0.00,meteohub,2013-03-11 15:50:00,
2013-03-11 11:56:00,73.4,61.7,30.04,SSW,202,4.0,12.0,67,0.00,,,0.00,meteohub,2013-03-11 15:56:00,
2013-03-11 12:02:00,73.4,61.3,30.04,West,278,4.0,12.0,66,0.00,,,0.00,meteohub,2013-03-11 16:02:00,
2013-03-11 12:07:00,73.2,61.2,30.04,SE,146,5.0,10.0,66,0.00,,,0.00,meteohub,2013-03-11 16:07:00,
2013-03-11 12:12:00,73.9,61.3,30.04,SE,132,3.0,8.0,65,0.00,,,0.00,meteohub,2013-03-11 16:12:00,
2013-03-11 12:17:00,74.3,62.2,30.04,SSE,161,5.0,8.0,66,0.00,,,0.00,meteohub,2013-03-11 16:17:00,
2013-03-11 12:22:00,74.5,61.0,30.04,ESE,121,2.0,6.0,63,0.00,,,0.00,meteohub,2013-03-11 16:22:00,
2013-03-11 12:27:00,74.8,61.3,30.03,SSW,212,6.0,9.0,63,0.00,,,0.00,meteohub,2013-03-11 16:27:00,
2013-03-11 12:32:00,75.0,61.2,30.03,SW,232,6.0,9.0,62,0.00,,,0.00,meteohub,2013-03-11 16:32:00,
2013-03-11 12:37:00,75.6,61.7,30.03,South,188,7.0,9.0,62,0.00,,,0.00,meteohub,2013-03-11 16:37:00,
2013-03-11 12:42:00,75.2,59.9,30.03,South,187,4.0,11.0,59,0.00,,,0.00,meteohub,2013-03-11 16:42:00,
2013-03-11 12:47:00,75.0,60.6,30.03,WSW,241,2.0,11.0,61,0.00,,,0.00,meteohub,2013-03-11 16:47:00,
2013-03-11 12:54:00,75.2,60.4,30.03,WSW,248,4.0,12.0,60,0.00,,,0.00,meteohub,2013-03-11 16:54:00,
2013-03-11 13:00:00,75.6,60.3,30.03,WSW,255,2.0,13.0,59,0.00,,,0.00,meteohub,2013-03-11 17:00:00,
2013-03-11 13:06:00,75.9,60.6,30.02,SW,234,4.0,13.0,59,0.00,,,0.00,meteohub,2013-03-11 17:06:00,
2013-03-11 13:12:00,75.6,60.6,30.02,West,262,4.0,13.0,60,0.00,,,0.00,meteohub,2013-03-11 17:12:00,
2013-03-11 13:17:00,75.7,60.4,30.02,SW,223,9.0,11.0,59,0.00,,,0.00,meteohub,2013-03-11 17:17:00,
2013-03-11 13:22:00,75.6,60.6,30.01,West,260,3.0,13.0,60,0.00,,,0.00,meteohub,2013-03-11 17:22:00,
2013-03-11 13:27:00,75.9,60.6,30.01,SSE,166,3.0,13.0,59,0.00,,,0.00,meteohub,2013-03-11 17:27:00,
2013-03-11 13:32:00,76.8,60.4,30.01,South,171,9.0,13.0,57,0.00,,,0.00,meteohub,2013-03-11 17:32:00,
2013-03-11 13:37:00,76.5,61.0,30.01,WSW,239,5.0,15.0,59,0.00,,,0.00,meteohub,2013-03-11 17:37:00,
2013-03-11 13:42:00,76.3,60.4,30.01,WSW,245,3.0,15.0,58,0.00,,,0.00,meteohub,2013-03-11 17:42:00,
2013-03-11 13:47:00,76.3,61.0,30.01,SSE,168,5.0,15.0,59,0.00,,,0.00,meteohub,2013-03-11 17:47:00,
2013-03-11 13:52:00,76.8,61.3,30.00,WSW,242,4.0,16.0,59,0.00,,,0.00,meteohub,2013-03-11 17:52:00,
2013-03-11 13:57:00,76.8,61.0,30.00,WNW,286,2.0,16.0,58,0.00,,,0.00,meteohub,2013-03-11 17:57:00,
2013-03-11 14:02:00,75.9,60.1,30.00,WSW,258,6.0,16.0,58,0.00,,,0.00,meteohub,2013-03-11 18:02:00,
2013-03-11 14:07:00,76.1,60.8,29.99,SSW,213,8.0,14.0,59,0.00,,,0.00,meteohub,2013-03-11 18:07:00,
2013-03-11 14:12:00,75.9,60.6,29.99,WNW,286,2.0,15.0,59,0.00,,,0.00,meteohub,2013-03-11 18:12:00,
2013-03-11 14:17:00,76.3,60.4,29.99,SE,134,4.0,15.0,58,0.00,,,0.00,meteohub,2013-03-11 18:17:00,
2013-03-11 14:22:00,76.1,60.3,29.98,SW,224,5.0,15.0,58,0.00,,,0.00,meteohub,2013-03-11 18:22:00,
2013-03-11 14:28:00,76.5,61.0,29.98,WSW,246,7.0,15.0,59,0.00,,,0.00,meteohub,2013-03-11 18:28:00,
2013-03-11 14:34:00,76.6,60.8,29.97,West,259,3.0,15.0,58,0.00,,,0.00,meteohub,2013-03-11 18:34:00,
2013-03-11 14:40:00,77.5,59.5,29.97,WSW,251,13.0,16.0,54,0.00,,,0.00,meteohub,2013-03-11 18:40:00,
2013-03-11 14:46:00,77.0,59.0,29.97,SW,232,6.0,17.0,54,0.00,,,0.00,meteohub,2013-03-11 18:46:00,
2013-03-11 14:52:00,76.6,59.7,29.96,SSW,208,5.0,17.0,56,0.00,,,0.00,meteohub,2013-03-11 18:52:00,
2013-03-11 14:58:00,76.5,58.6,29.96,SW,223,17.0,17.0,54,0.00,,,0.00,meteohub,2013-03-11 18:58:00,
2013-03-11 15:05:00,76.6,58.8,29.96,West,263,7.0,18.0,54,0.00,,,0.00,meteohub,2013-03-11 19:05:00,
2013-03-11 15:11:00,76.6,58.3,29.96,WSW,247,9.0,19.0,53,0.00,,,0.00,meteohub,2013-03-11 19:11:00,
2013-03-11 15:17:00,76.5,59.2,29.96,SW,225,7.0,18.0,55,0.00,,,0.00,meteohub,2013-03-11 19:17:00,
2013-03-11 15:22:00,77.2,58.6,29.95,SW,221,3.0,18.0,53,0.00,,,0.00,meteohub,2013-03-11 19:22:00,
2013-03-11 15:27:00,76.5,58.6,29.95,SSW,199,4.0,15.0,54,0.00,,,0.00,meteohub,2013-03-11 19:27:00,
2013-03-11 15:32:00,75.7,59.4,29.95,SW,234,7.0,16.0,57,0.00,,,0.00,meteohub,2013-03-11 19:32:00,
2013-03-11 15:38:00,75.6,59.7,29.94,WSW,257,5.0,18.0,58,0.00,,,0.00,meteohub,2013-03-11 19:38:00,
2013-03-11 15:44:00,76.1,60.3,29.94,WNW,285,4.0,18.0,58,0.00,,,0.00,meteohub,2013-03-11 19:44:00,
2013-03-11 15:50:00,76.8,59.9,29.93,WSW,239,6.0,15.0,56,0.00,,,0.00,meteohub,2013-03-11 19:50:00,
2013-03-11 15:56:00,76.5,60.1,29.93,SSW,208,9.0,14.0,57,0.00,,,0.00,meteohub,2013-03-11 19:56:00,
2013-03-11 16:02:00,76.6,60.3,29.92,WSW,249,10.0,15.0,57,0.00,,,0.00,meteohub,2013-03-11 20:02:00,
2013-03-11 16:07:00,75.9,60.1,29.93,WSW,244,9.0,17.0,58,0.00,,,0.00,meteohub,2013-03-11 20:07:00,
2013-03-11 16:12:00,75.9,60.1,29.93,West,277,7.0,17.0,58,0.00,,,0.00,meteohub,2013-03-11 20:12:00,
2013-03-11 16:17:00,75.9,60.1,29.94,West,271,6.0,17.0,58,0.00,,,0.00,meteohub,2013-03-11 20:17:00,
2013-03-11 16:22:00,75.9,60.1,29.94,SW,233,9.0,16.0,58,0.00,,,0.00,meteohub,2013-03-11 20:22:00,
2013-03-11 16:27:00,76.3,59.9,29.94,SW,232,11.0,16.0,57,0.00,,,0.00,meteohub,2013-03-11 20:27:00,
2013-03-11 16:32:00,75.4,59.0,29.94,West,259,3.0,16.0,57,0.00,,,0.00,meteohub,2013-03-11 20:32:00,
2013-03-11 16:37:00,74.8,59.0,29.94,SW,228,6.0,15.0,58,0.00,,,0.00,meteohub,2013-03-11 20:37:00,
2013-03-11 16:42:00,75.6,59.7,29.94,WSW,248,11.0,15.0,58,0.00,,,0.00,meteohub,2013-03-11 20:42:00,
2013-03-11 16:47:00,75.6,59.2,29.94,WNW,283,5.0,14.0,57,0.00,,,0.00,meteohub,2013-03-11 20:47:00,
2013-03-11 16:54:00,75.2,59.0,29.93,South,191,6.0,14.0,57,0.00,,,0.00,meteohub,2013-03-11 20:54:00,
2013-03-11 17:00:00,74.7,58.8,29.94,SSW,195,7.0,16.0,58,0.00,,,0.00,meteohub,2013-03-11 21:00:00,
2013-03-11 17:06:00,74.1,58.5,29.94,West,270,2.0,16.0,58,0.00,,,0.00,meteohub,2013-03-11 21:06:00,
2013-03-11 17:12:00,74.3,58.1,29.94,South,191,7.0,19.0,57,0.00,,,0.00,meteohub,2013-03-11 21:12:00,
2013-03-11 17:17:00,74.7,57.9,29.93,West,260,6.0,19.0,56,0.00,,,0.00,meteohub,2013-03-11 21:17:00,
2013-03-11 17:22:00,74.8,58.6,29.93,WSW,238,8.0,19.0,57,0.00,,,0.00,meteohub,2013-03-11 21:22:00,
2013-03-11 17:27:00,74.1,58.8,29.94,WSW,239,7.0,14.0,59,0.00,,,0.00,meteohub,2013-03-11 21:27:00,
2013-03-11 17:33:00,73.8,59.0,29.93,SSW,201,7.0,15.0,60,0.00,,,0.00,meteohub,2013-03-11 21:33:00,
2013-03-11 17:39:00,73.6,59.4,29.93,WSW,244,7.0,15.0,61,0.00,,,0.00,meteohub,2013-03-11 21:39:00,
2013-03-11 17:45:00,73.6,59.4,29.93,WSW,255,2.0,14.0,61,0.00,,,0.00,meteohub,2013-03-11 21:45:00,
2013-03-11 17:51:00,73.2,59.4,29.93,WNW,283,5.0,14.0,62,0.00,,,0.00,meteohub,2013-03-11 21:51:00,
2013-03-11 17:57:00,73.2,59.9,29.93,West,280,5.0,14.0,63,0.00,,,0.00,meteohub,2013-03-11 21:57:00,
2013-03-11 18:02:00,73.0,60.1,29.94,West,259,7.0,14.0,64,0.00,,,0.00,meteohub,2013-03-11 22:02:00,
2013-03-11 18:10:00,72.7,60.3,29.94,WSW,237,3.0,15.0,65,0.00,,,0.00,meteohub,2013-03-11 22:10:00,
2013-03-11 18:16:00,72.3,60.3,29.94,West,272,8.0,13.0,66,0.00,,,0.00,meteohub,2013-03-11 22:16:00,
2013-03-11 18:22:00,72.0,60.4,29.94,WSW,256,7.0,13.0,67,0.00,,,0.00,meteohub,2013-03-11 22:22:00,
2013-03-11 18:28:00,71.8,60.3,29.93,WSW,254,6.0,16.0,67,0.00,,,0.00,meteohub,2013-03-11 22:28:00,
2013-03-11 18:34:00,71.8,60.3,29.92,SE,142,7.0,16.0,67,0.00,,,0.00,meteohub,2013-03-11 22:34:00,
2013-03-11 18:40:00,71.8,60.3,29.91,SSW,203,4.0,12.0,67,0.00,,,0.00,meteohub,2013-03-11 22:40:00,
2013-03-11 18:46:00,71.6,60.1,29.91,ESE,109,5.0,13.0,67,0.00,,,0.00,meteohub,2013-03-11 22:46:00,
2013-03-11 18:52:00,71.6,60.1,29.90,SSW,210,3.0,12.0,67,0.00,,,0.00,meteohub,2013-03-11 22:52:00,
2013-03-11 18:57:00,71.4,59.9,29.89,SSW,211,7.0,9.0,67,0.00,,,0.00,meteohub,2013-03-11 22:57:00,
2013-03-11 19:02:00,71.4,59.9,29.88,WSW,254,6.0,11.0,67,0.00,,,0.00,meteohub,2013-03-11 23:02:00,
2013-03-11 19:08:00,71.6,60.1,29.88,SSW,209,3.0,15.0,67,0.00,,,0.00,meteohub,2013-03-11 23:08:00,
2013-03-11 19:14:00,71.6,60.1,29.87,West,268,1.0,15.0,67,0.00,,,0.00,meteohub,2013-03-11 23:14:00,
2013-03-11 19:20:00,71.2,60.1,29.86,West,274,4.0,11.0,68,0.00,,,0.00,meteohub,2013-03-11 23:20:00,
2013-03-11 19:26:00,71.1,60.4,29.86,SSW,194,5.0,13.0,69,0.00,,,0.00,meteohub,2013-03-11 23:26:00,
2013-03-11 19:32:00,70.9,60.6,29.87,West,263,5.0,14.0,70,0.00,,,0.00,meteohub,2013-03-11 23:32:00,
2013-03-11 19:37:00,70.9,60.6,29.87,SSW,201,8.0,14.0,70,0.00,,,0.00,meteohub,2013-03-11 23:37:00,
2013-03-11 19:42:00,70.9,60.6,29.87,WSW,257,3.0,14.0,70,0.00,,,0.00,meteohub,2013-03-11 23:42:00,
2013-03-11 19:47:00,70.7,60.4,29.88,WSW,246,6.0,12.0,70,0.00,,,0.00,meteohub,2013-03-11 23:47:00,
2013-03-11 19:52:00,70.5,60.3,29.88,SSW,211,4.0,13.0,70,0.00,,,0.00,meteohub,2013-03-11 23:52:00,
2013-03-11 19:57:00,70.5,60.3,29.88,SW,226,3.0,13.0,70,0.00,,,0.00,meteohub,2013-03-11 23:57:00,
2013-03-11 20:02:00,70.3,60.4,29.88,SW,217,4.0,13.0,71,0.00,,,0.00,meteohub,2013-03-12 00:02:00,
2013-03-11 20:07:00,70.3,60.4,29.89,WSW,244,3.0,16.0,71,0.00,,,0.00,meteohub,2013-03-12 00:07:00,
2013-03-11 20:12:00,70.2,60.3,29.88,West,260,2.0,16.0,71,0.00,,,0.00,meteohub,2013-03-12 00:12:00,
2013-03-11 20:17:00,70.2,60.6,29.88,WSW,254,5.0,16.0,72,0.00,,,0.00,meteohub,2013-03-12 00:17:00,
2013-03-11 20:22:00,70.2,60.6,29.88,WSW,246,2.0,10.0,72,0.00,,,0.00,meteohub,2013-03-12 00:22:00,
2013-03-11 20:27:00,70.0,60.6,29.89,South,176,4.0,10.0,72,0.00,,,0.00,meteohub,2013-03-12 00:27:00,
2013-03-11 20:33:00,70.0,60.6,29.89,South,173,1.0,10.0,72,0.00,,,0.00,meteohub,2013-03-12 00:33:00,
2013-03-11 20:39:00,70.0,61.0,29.89,WSW,254,3.0,9.0,73,0.00,,,0.00,meteohub,2013-03-12 00:39:00,
2013-03-11 20:45:00,69.8,60.8,29.89,SSW,193,3.0,9.0,73,0.00,,,0.00,meteohub,2013-03-12 00:45:00,
2013-03-11 20:51:00,69.6,60.6,29.89,SSE,162,2.0,13.0,73,0.00,,,0.00,meteohub,2013-03-12 00:51:00,
2013-03-11 20:57:00,69.6,60.6,29.89,SW,220,5.0,13.0,73,0.00,,,0.00,meteohub,2013-03-12 00:57:00,
2013-03-11 21:02:00,69.6,60.6,29.89,SE,132,3.0,12.0,73,0.00,,,0.00,meteohub,2013-03-12 01:02:00,
2013-03-11 21:07:00,69.4,60.4,29.89,SSE,155,6.0,9.0,73,0.00,,,0.00,meteohub,2013-03-12 01:07:00,
2013-03-11 21:12:00,69.4,60.4,29.88,SSW,203,5.0,9.0,73,0.00,,,0.00,meteohub,2013-03-12 01:12:00,
2013-03-11 21:17:00,69.4,60.4,29.89,SSW,193,5.0,8.0,73,0.00,,,0.00,meteohub,2013-03-12 01:17:00,
2013-03-11 21:24:00,69.4,60.4,29.89,SSE,159,1.0,9.0,73,0.00,,,0.00,meteohub,2013-03-12 01:24:00,
2013-03-11 21:30:00,69.4,60.4,29.90,South,188,6.0,10.0,73,0.00,,,0.00,meteohub,2013-03-12 01:30:00,
2013-03-11 21:37:00,69.4,60.4,29.90,SSW,195,7.0,10.0,73,0.00,,,0.00,meteohub,2013-03-12 01:37:00,
2013-03-11 21:42:00,69.3,60.3,29.90,WSW,238,1.0,12.0,73,0.00,,,0.00,meteohub,2013-03-12 01:42:00,
2013-03-11 21:47:00,69.3,60.6,29.90,SSW,193,2.0,12.0,74,0.00,,,0.00,meteohub,2013-03-12 01:47:00,
2013-03-11 21:52:00,69.3,60.6,29.91,SW,217,6.0,12.0,74,0.00,,,0.00,meteohub,2013-03-12 01:52:00,
2013-03-11 21:58:00,69.3,60.6,29.91,SSW,207,3.0,10.0,74,0.00,,,0.00,meteohub,2013-03-12 01:58:00,
2013-03-11 22:04:00,69.4,60.8,29.91,West,261,4.0,10.0,74,0.00,,,0.00,meteohub,2013-03-12 02:04:00,
2013-03-11 22:10:00,69.4,60.8,29.90,SSW,198,4.0,11.0,74,0.00,,,0.00,meteohub,2013-03-12 02:10:00,
2013-03-11 22:16:00,69.3,61.0,29.90,South,171,2.0,11.0,75,0.00,,,0.00,meteohub,2013-03-12 02:16:00,
2013-03-11 22:22:00,69.3,61.0,29.89,SSE,153,2.0,10.0,75,0.00,,,0.00,meteohub,2013-03-12 02:22:00,
2013-03-11 22:27:00,69.3,61.0,29.89,SW,218,4.0,13.0,75,0.00,,,0.00,meteohub,2013-03-12 02:27:00,
2013-03-11 22:32:00,69.3,61.3,29.89,SSW,213,7.0,13.0,76,0.00,,,0.00,meteohub,2013-03-12 02:32:00,
2013-03-11 22:37:00,69.3,61.3,29.89,SSW,197,3.0,13.0,76,0.00,,,0.00,meteohub,2013-03-12 02:37:00,
2013-03-11 22:42:00,69.3,61.3,29.90,WSW,256,5.0,9.0,76,0.00,,,0.00,meteohub,2013-03-12 02:42:00,
2013-03-11 22:47:00,69.3,61.7,29.90,SSE,165,3.0,9.0,77,0.00,,,0.00,meteohub,2013-03-12 02:47:00,
2013-03-11 22:52:00,69.3,61.7,29.90,SSW,202,7.0,10.0,77,0.00,,,0.00,meteohub,2013-03-12 02:52:00,
2013-03-11 22:58:00,69.1,61.5,29.90,SW,232,6.0,10.0,77,0.00,,,0.00,meteohub,2013-03-12 02:58:00,
2013-03-11 23:04:00,69.1,61.9,29.90,SW,227,4.0,9.0,78,0.00,,,0.00,meteohub,2013-03-12 03:04:00,
2013-03-11 23:10:00,69.1,61.9,29.90,SSW,207,2.0,9.0,78,0.00,,,0.00,meteohub,2013-03-12 03:10:00,
2013-03-11 23:17:00,69.1,61.9,29.91,SSW,194,2.0,9.0,78,0.00,,,0.00,meteohub,2013-03-12 03:17:00,
2013-03-11 23:23:00,69.3,62.1,29.90,South,170,2.0,7.0,78,0.00,,,0.00,meteohub,2013-03-12 03:23:00,
2013-03-11 23:29:00,69.3,62.1,29.89,SSW,200,8.0,8.0,78,0.00,,,0.00,meteohub,2013-03-12 03:29:00,
2013-03-11 23:35:00,69.3,62.1,29.89,SSW,194,2.0,10.0,78,0.00,,,0.00,meteohub,2013-03-12 03:35:00,
2013-03-11 23:41:00,69.3,62.1,29.88,WSW,248,0.0,10.0,78,0.00,,,0.00,meteohub,2013-03-12 03:41:00,
2013-03-11 23:47:00,69.3,62.1,29.89,WNW,284,4.0,10.0,78,0.00,,,0.00,meteohub,2013-03-12 03:47:00,
2013-03-11 23:53:00,69.3,62.1,29.90,SSW,209,3.0,9.0,78,0.00,,,0.00,meteohub,2013-03-12 03:53:00,
2013-03-11 23:59:00,69.3,62.1,29.90,SSW,207,2.0,10.0,78,0.00,,,0.00,meteohub,2013-03-12 03:59:00,